User: anonymous   Login
Location: Unspecified
(0.0000°N, 0.0000°E)
Time: 01:20:12
(UTC+00:00)
Language:

NOAA 17 - Orbit

View from above orbital plane
View from above orbital plane
View from above satellite
View from above satellite

Ground track
Ground track

The orbit data is extracted from the following two-line orbital elements,

1 27453U 02032A   15144.48464428  .00000038  00000-0  33724-4 0  9997
2 27453 098.3386 131.6562 0010460 250.9597 109.0451 14.24883017671284
Epoch (UTC): 24 May 2015 11:37:53
Eccentricity: 0.0010460
inclination: 98.3386°
perigee height: 801 km
apogee height: 816 km
right ascension of ascending node: 131.6562°
argument of perigee: 250.9597°
revolutions per day: 14.24883017
mean anomaly at epoch: 109.0451°
orbit number at epoch: 67128

The dashed part of the orbit path shows where the satellite is in the earth's shadow,  

DLR